WetterOnline ( http://www.wetteronline.at )

Wetter aktuell Salzburg

Aktuelles Wetter: Salzburg Flughafen (450m)

6-stündlich | Neueste Meldungen
Ortszeit Temperatur Wetter
Do, 22.02. 19:00 -1.9° C bedeckt
Do, 22.02. 13:00 -1.2° C leichter Schneefall
Do, 22.02. 7:00 -2.4° C leichter Schneefall
Do, 22.02. 1:00 -1.1° C bewölkt
Mi, 21.02. 19:00 -1.1° C leichter Schneefall
Mi, 21.02. 13:00 0.2° C bewölkt
Mi, 21.02. 7:00 -1.9° C leichter Schneefall
Mi, 21.02. 1:00 -1.5° C leichter Schneefall
Ortszeit Temperatur Wetter
Do, 22.02. 19:00 -1.9° C bedeckt
Do, 22.02. 18:50 -2° C bewölkt
Do, 22.02. 18:20 -2° C bewölkt
Do, 22.02. 18:00 -1.8° C bedeckt
Do, 22.02. 17:50 -2° C bewölkt
Do, 22.02. 17:20 -2° C bewölkt
Do, 22.02. 17:00 -1.9° C bedeckt
Do, 22.02. 16:20 -2° C bewölkt
Do, 22.02. 16:00 -1.6° C bedeckt
Do, 22.02. 15:20 -2° C bewölkt
Ortszeit Relative Feuchte Sichtweite
Do, 22.02. 19:00 75% 8 km
Do, 22.02. 13:00 70% 7 km
Do, 22.02. 7:00 74% 10 km
Do, 22.02. 1:00 75% 9 km
Mi, 21.02. 19:00 90% 2.5 km
Mi, 21.02. 13:00 72% 8 km
Mi, 21.02. 7:00 97% 3.0 km
Mi, 21.02. 1:00 92% 3.5 km
Ortszeit Relative Feuchte Sichtweite
Do, 22.02. 19:00 75% 8 km
Do, 22.02. 18:50 74% >10 km
Do, 22.02. 18:20 74% >10 km
Do, 22.02. 18:00 73% 6 km
Do, 22.02. 17:50 74% >10 km
Do, 22.02. 17:20 74% >10 km
Do, 22.02. 17:00 75% 11 km
Do, 22.02. 16:20 74% >10 km
Do, 22.02. 16:00 72% 8 km
Do, 22.02. 15:20 74% >10 km
Ortszeit Niederschlagsmenge Niederschlagsart
Do, 22.02. 19:00 0.1 l/m2 in 12 Std. -
Do, 22.02. 13:00 0.1 l/m2 in 6 Std. -
Do, 22.02. 7:00 0.3 l/m2 in 12 Std. -
Do, 22.02. 1:00 0.2 l/m2 in 6 Std. -
Mi, 21.02. 19:00 2 l/m2 in 12 Std. -
Mi, 21.02. 13:00 1 l/m2 in 6 Std. -
Mi, 21.02. 7:00 3 l/m2 in 12 Std. -
Mi, 21.02. 1:00 2 l/m2 in 6 Std. -
Ortszeit Niederschlagsmenge Niederschlagsart
Do, 22.02. 19:00 keine Meldung -
Do, 22.02. 18:50 keine Meldung -
Do, 22.02. 18:20 keine Meldung -
Do, 22.02. 18:00 0.1 l/m2 in 1 Std. -
Do, 22.02. 17:50 keine Meldung -
Do, 22.02. 17:20 keine Meldung -
Do, 22.02. 17:00 0.0 l/m2 in 1 Std. -
Do, 22.02. 16:20 keine Meldung -
Do, 22.02. 16:00 0.1 l/m2 in 1 Std. -
Do, 22.02. 15:20 keine Meldung -
Ortszeit Stärke Spitze Richtung
km/h Bft. km/h Grad Sektor
Do, 22.02. 19:00 14 3 - 70° O
Do, 22.02. 13:00 22 4 - 60° NO
Do, 22.02. 7:00 22 4 - 50° NO
Do, 22.02. 1:00 14 3 - 50° NO
Mi, 21.02. 19:00 11 2 - - -
Mi, 21.02. 13:00 11 2 - - -
Mi, 21.02. 7:00 11 2 - 320° NW
Mi, 21.02. 1:00 7 2 - - -
Ortszeit Stärke Spitze Richtung
km/h Bft. km/h Grad Sektor
Do, 22.02. 19:00 14 3 - 70° O
Do, 22.02. 18:50 15 3 - 70° O
Do, 22.02. 18:20 15 3 - 60° NO
Do, 22.02. 18:00 14 3 - 60° NO
Do, 22.02. 17:50 15 3 - 60° NO
Do, 22.02. 17:20 20 4 - 60° NO
Do, 22.02. 17:00 18 3 - 60° NO
Do, 22.02. 16:20 22 4 - 40° NO
Do, 22.02. 16:00 22 4 - 60° NO
Do, 22.02. 15:20 22 4 - 50° NO
Ortszeit Untergrenze Bedeckung Gattung
total tief tief mittel hoch
Do, 22.02. 19:00 660 m 8/8 5/8 Sc - -
Do, 22.02. 13:00 600 m 7/8 6/8 Sc - -
Do, 22.02. 7:00 480 m 8/8 6/8 Sc - -
Do, 22.02. 1:00 660 m 8/8 5/8 - - -
Mi, 21.02. 19:00 240 m 8/8 5/8 St - -
Mi, 21.02. 13:00 390 m 7/8 6/8 St - -
Mi, 21.02. 7:00 120 m 8/8 5/8 St - -
Mi, 21.02. 1:00 150 m 8/8 6/8 - - -
Ortszeit Bedeckungsgrad in Achtel und Wolkenuntergrenze
Do, 22.02. 19:00 1(660m) 3(780m) 5(900m)
Do, 22.02. 18:50 1-2(660m) 3-4(780m) 5-7(900m)
Do, 22.02. 18:20 1-2(600m) 5-7(720m)
Do, 22.02. 18:00 1(600m) 6(720m)
Do, 22.02. 17:50 1-2(600m) 5-7(720m)
Do, 22.02. 17:20 1-2(570m) 5-7(720m)
Do, 22.02. 17:00 1(570m) 6(720m)
Do, 22.02. 16:20 1-2(570m) 5-7(720m)
Do, 22.02. 16:00 1(600m) 6(720m)
Do, 22.02. 15:20 1-2(660m) 5-7(720m)
Ortszeit Luftdruck NN (hPa) Tendenz (hPa in 3 Std.)
Do, 22.02. 19:00 1017 + 0,3
Do, 22.02. 13:00 1017 0,0
Do, 22.02. 7:00 1017 - 0,6
Do, 22.02. 1:00 1018 - 1,1
Mi, 21.02. 19:00 1020 + 0,8
Mi, 21.02. 13:00 1019 - 0,6
Mi, 21.02. 7:00 1019 + 0,9
Mi, 21.02. 1:00 1018 + 0,2
Ortszeit Luftdruck NN (hPa) Tendenz (hPa in 3 Std.)
Do, 22.02. 19:00 1017 + 0,3
Do, 22.02. 18:50 1014 keine Meldung
Do, 22.02. 18:20 1014 keine Meldung
Do, 22.02. 18:00 1017 + 0,1
Do, 22.02. 17:50 1014 keine Meldung
Do, 22.02. 17:20 1014 keine Meldung
Do, 22.02. 17:00 1017 + 0,1
Do, 22.02. 16:20 1014 keine Meldung
Do, 22.02. 16:00 1017 - 0,1
Do, 22.02. 15:20 1014 keine Meldung
Ortszeit Schneehöhe (cm)
Do, 22.02. 19:00 -
Do, 22.02. 13:00 -
Do, 22.02. 7:00 2
Do, 22.02. 1:00 0
Mi, 21.02. 19:00 -
Mi, 21.02. 13:00 -
Mi, 21.02. 7:00 4
Mi, 21.02. 1:00 1
Ortszeit Schneehöhe (cm)
Do, 22.02. 19:00 -
Do, 22.02. 18:50 -
Do, 22.02. 18:20 -
Do, 22.02. 18:00 -
Do, 22.02. 17:50 -
Do, 22.02. 17:20 -
Do, 22.02. 17:00 -
Do, 22.02. 16:20 -
Do, 22.02. 16:00 -
Do, 22.02. 15:20 -
Link zu dieser Seite / Seite empfehlen

Das Wetter in ...